Location: Catenanuova
(37.5690°N, 14.6870°E)
Time: 21:20:42
(UTC+02:00)

BlueWalker 3 - Pass Details

Date: 19 May 2025
Orbit: 460 x 472 km, 53.2° (Epoch: 16 June)

Event Time Altitude Azimuth Distance (km) Brightness Sun altitude
Rises 23:06:53 0° 317° (NW) 2,493 6.7 -26.8°
Reaches altitude 10° 23:09:05 10° 323° (NW) 1,618 5.5 -27.0°
Enters shadow 23:11:11 30° 343° (NNW) 870 3.7 -27.2°
